Location: Olsztyn
(53.7767°N, 20.4765°E)
Time: 19:52:41
(UTC+02:00)

Envisat - Pass Details

Date: 28 February 2024
Orbit: 762 x 764 km, 98.3° (Epoch: 20 April)

Event Time Altitude Azimuth Distance (km) Brightness Sun altitude
Rises 04:13:04 0° 11° (N) 3,246 6.6 -20.9°
Reaches altitude 10° 04:15:30 10° 4° (N) 2,315 5.7 -20.6°
Maximum altitude 04:20:13 40° 297° (WNW) 1,128 3.5 -19.9°
Enters shadow 04:20:52 38° 278° (W) 1,161 3.4 -19.8°
